Location: Stara Lesna
(49.1528°N, 20.2911°E)
Time: 10:15:53
(UTC+02:00)

Falcon 9 debris - Pass Details

Date: 21 September 2019
Orbit: 431 x 438 km, 53.0° (Epoch: 13 October)

Event Time Altitude Azimuth Distance (km) Brightness Sun altitude
Exits shadow 05:42:04 - 294° (WNW) 1,859 5.8 -7.5°
Reaches altitude 10° 05:42:49 10° 295° (WNW) 1,552 5.4 -7.4°
Maximum altitude 05:46:17 65° 18° (NNE) 486 3.5 -6.8°
Drops below altitude 10° 05:49:45 10° 102° (ESE) 1,550 7.3 -6.3°
Sets 05:51:53 0° 105° (ESE) 2,418 8.4 -5.9°
